Flag for U.S.A. Weather past 2 weeks in Norfolk, Virginia, U.S.A.

Now
53 °F

Passing clouds.


Feels Like: 51 °F
Forecast: 45 / 56 °F
Wind: 7 mph from South

Location: Norfolk Naval Air Station

Current Time: Dec 28, 2014 at 12:26:02 AM

Latest Report: Dec 27, 2014 at 11:59 PM


Visibility: 10 mi

Pressure: 30.15 "Hg

Humidity: 59%

Dew point: 39 °F

Location of NorfolkLocation

Historic Weather in Norfolk — Graph

°F

Norfolk temperature yesterday

Maximum temperature yesterday: 65 °F (at 2:59 PM)
Minimum temperature yesterday: 40 °F (at 1:59 AM)
Average temperature yesterday: 52 °F

Past Weeks' High & Low Weather Summary

 TemperatureHumidityPressure
High72 °F (Dec 24, 10:59 AM)97% (Dec 24, 4:59 AM)30.37 "Hg (Dec 24, 4:59 AM)
Low36 °F (Dec 12, 11:59 PM)31% (Dec 27, 2:59 PM)29.65 "Hg (Dec 24, 11:59 PM)
Average48 °F68%30.11 "Hg
* Reported Dec 12 9:59 PM — Dec 27 9:59 PM, Norfolk, Weather by CustomWeather, © 2014

Note: Actual official high and low records may vary slightly from our data, if they occured in-between our weather recording intervals... More about our weather records

Advertising

Norfolk weather history for previous 24 hours

 ConditionsComfort  
Time TempWeatherWind HumidityBarometerVisibility
9:59 PM
Dec 27
53 °FPassing clouds.9 mph59%30.22 "Hg10 mi
8:59 PM55 °FPassing clouds.8 mph53%30.22 "Hg10 mi
7:59 PM55 °FPassing clouds.3 mph55%30.23 "Hg10 mi
6:59 PM56 °FPassing clouds.5 mph51%30.23 "Hg10 mi
5:59 PM58 °FPartly cloudy.3 mph46%30.23 "Hg10 mi
4:59 PM60 °FPartly cloudy.3 mph41%30.22 "Hg10 mi
3:59 PM64 °FSunny.6 mph33%30.22 "Hg10 mi
2:59 PM65 °FScattered clouds.7 mph31%30.22 "Hg10 mi
1:59 PM64 °FScattered clouds.8 mph35%30.23 "Hg10 mi
12:59 PM62 °FScattered clouds.9 mph38%30.25 "Hg10 mi
11:59 AM60 °FPassing clouds.8 mph46%30.30 "Hg10 mi
10:59 AM56 °FPassing clouds.5 mph51%30.31 "Hg10 mi
9:59 AM52 °FPassing clouds.5 mph61%30.33 "Hg10 mi
8:59 AM48 °FPassing clouds.3 mph71%30.34 "Hg10 mi
7:59 AM43 °FPassing clouds.No wind76%30.33 "Hg10 mi
6:59 AM42 °FPassing clouds.3 mph76%30.33 "Hg10 mi
5:59 AM41 °FPassing clouds.5 mph80%30.30 "Hg10 mi
4:59 AM42 °FPassing clouds.3 mph76%30.29 "Hg10 mi
3:59 AM40 °FClear.5 mph80%30.29 "Hg10 mi
2:59 AM40 °FPassing clouds.No wind83%30.30 "Hg8 mi
1:59 AM40 °FFog.3 mph83%30.31 "Hg6 mi
12:59 AM42 °FFog.No wind82%30.28 "Hg6 mi
Weather by CustomWeather, © 2014

See weather overviewHow to use our weather pages